Satellite: NOAA-12 Catalog number: 21263 Epoch time: 08024.26103951 Element set: 517 Inclination: 098.7631 deg RA of node: 026.2471 deg Eccentricity: 0.0012381 Arg of perigee: 182.4627 deg Mean anomaly: 177.6521 deg Mean motion: 14.25513339 rev/day Decay rate: -3.1e-07 rev/day^2 Epoch rev: 86774 Checksum: 285
Satellite: MET-3/5 Catalog number: 21655 Epoch time: 08024.24362814 Element set: 381 Inclination: 082.5493 deg RA of node: 206.7540 deg Eccentricity: 0.0014234 Arg of perigee: 019.8853 deg Mean anomaly: 340.2822 deg Mean motion: 13.17014005 rev/day Decay rate: 5.1e-07 rev/day^2 Epoch rev: 79050 Checksum: 267
Satellite: MET-2/21 Catalog number: 22782 Epoch time: 08024.00177191 Element set: 45 Inclination: 082.5446 deg RA of node: 226.7312 deg Eccentricity: 0.0022111 Arg of perigee: 340.8961 deg Mean anomaly: 019.1370 deg Mean motion: 13.83625218 rev/day Decay rate: 1.09e-06 rev/day^2 Epoch rev: 72705 Checksum: 266
Satellite: OKEAN-4 Catalog number: 23317 Epoch time: 08024.08631984 Element set: 487 Inclination: 082.5388 deg RA of node: 090.4663 deg Eccentricity: 0.0020516 Arg of perigee: 243.2394 deg Mean anomaly: 116.6729 deg Mean motion: 14.82571988 rev/day Decay rate: 9.6e-07 rev/day^2 Epoch rev: 71678 Checksum: 335
Satellite: NOAA-14 Catalog number: 23455 Epoch time: 08024.46159673 Element set: 989 Inclination: 098.9642 deg RA of node: 096.5301 deg Eccentricity: 0.0009456 Arg of perigee: 189.5381 deg Mean anomaly: 170.5648 deg Mean motion: 14.13734943 rev/day Decay rate: 3.12e-06 rev/day^2 Epoch rev: 67390 Checksum: 337
Satellite: SICH-1 Catalog number: 23657 Epoch time: 08024.07661042 Element set: 286 Inclination: 082.5244 deg RA of node: 231.4108 deg Eccentricity: 0.0022405 Arg of perigee: 235.3098 deg Mean anomaly: 124.6034 deg Mean motion: 14.81545933 rev/day Decay rate: 1.20e-06 rev/day^2 Epoch rev: 66873 Checksum: 273
Satellite: NOAA-15 Catalog number: 25338 Epoch time: 08024.47213990 Element set: 326 Inclination: 098.5454 deg RA of node: 020.0759 deg Eccentricity: 0.0011559 Arg of perigee: 102.7671 deg Mean anomaly: 257.4817 deg Mean motion: 14.24682804 rev/day Decay rate: -7.6e-07 rev/day^2 Epoch rev: 50419 Checksum: 307
Satellite: RESURS Catalog number: 25394 Epoch time: 08024.16852123 Element set: 839 Inclination: 098.4083 deg RA of node: 074.5857 deg Eccentricity: 0.0000715 Arg of perigee: 288.7485 deg Mean anomaly: 071.3618 deg Mean motion: 14.24152373 rev/day Decay rate: -2.7e-07 rev/day^2 Epoch rev: 49580 Checksum: 312
Satellite: FENGYUN1 Catalog number: 25730 Epoch time: 08024.55705102 Element set: 323 Inclination: 098.7120 deg RA of node: 005.3029 deg Eccentricity: 0.0020262 Arg of perigee: 217.1754 deg Mean anomaly: 142.8012 deg Mean motion: 14.07672738 rev/day Decay rate: 5.40e-06 rev/day^2 Epoch rev: 44861 Checksum: 254
Satellite: OKEAN-0 Catalog number: 25860 Epoch time: 08024.00069475 Element set: 271 Inclination: 097.7403 deg RA of node: 021.0473 deg Eccentricity: 0.0001762 Arg of perigee: 052.9676 deg Mean anomaly: 307.1685 deg Mean motion: 14.73498550 rev/day Decay rate: 5.8e-07 rev/day^2 Epoch rev: 45801 Checksum: 292
Satellite: NOAA-16 Catalog number: 26536 Epoch time: 08024.48757357 Element set: 775 Inclination: 099.1429 deg RA of node: 010.5821 deg Eccentricity: 0.0009806 Arg of perigee: 273.2479 deg Mean anomaly: 086.7569 deg Mean motion: 14.12466931 rev/day Decay rate: -8.7e-07 rev/day^2 Epoch rev: 37834 Checksum: 346
Satellite: NOAA-17 Catalog number: 27453 Epoch time: 08024.44392051 Element set: 773 Inclination: 098.5542 deg RA of node: 093.1496 deg Eccentricity: 0.0012158 Arg of perigee: 166.1366 deg Mean anomaly: 194.0182 deg Mean motion: 14.23943745 rev/day Decay rate: 1.16e-06 rev/day^2 Epoch rev: 29020 Checksum: 297
Satellite: NOAA-18 Catalog number: 28654 Epoch time: 08024.48045529 Element set: 285 Inclination: 098.8545 deg RA of node: 327.3019 deg Eccentricity: 0.0014634 Arg of perigee: 006.4935 deg Mean anomaly: 353.6430 deg Mean motion: 14.11129343 rev/day Decay rate: -9.7e-07 rev/day^2 Epoch rev: 13806 Checksum: 308
/EX SB KEPS @ AMSAT $ORB08024.M Orbital Elements 08024.MISC
HR AMSAT ORBITAL ELEMENTS FOR MANNED AND MISCELLANEOUS SATELLITES FROM WA5QGD FORT WORTH,TX January 24, 2008 Send Subscribe/unsubscribe to KEPS at http://www.amsat.org/mailman/listinfo/keps BID: ORB08024.M TO ALL RADIO AMATEURS BT
Satellite: HUBBLE Catalog number: 20580 Epoch time: 08023.86469684 Element set: 0066 Inclination: 028.4677 deg RA of node: 191.0219 deg Eccentricity: 0.0003500 Arg of perigee: 281.0769 deg Mean anomaly: 078.9429 deg Mean motion: 15.00330025 rev/day Decay rate: 3.26e-06 rev/day^2 Epoch rev: 77313 Checksum: 288
Satellite: UARS Catalog number: 21701 Epoch time: 08024.22187912 Element set: 274 Inclination: 056.9762 deg RA of node: 073.2898 deg Eccentricity: 0.0081303 Arg of perigee: 258.9448 deg Mean anomaly: 100.2454 deg Mean motion: 15.50346689 rev/day Decay rate: 3.828e-05 rev/day^2 Epoch rev: 90000 Checksum: 298
Satellite: PO-34 Catalog number: 25520 Epoch time: 08024.47809875 Element set: 916 Inclination: 028.4604 deg RA of node: 067.5402 deg Eccentricity: 0.0005742 Arg of perigee: 150.5048 deg Mean anomaly: 209.5873 deg Mean motion: 15.17120664 rev/day Decay rate: 3.09e-06 rev/day^2 Epoch rev: 51116 Checksum: 291
Satellite: ISS Catalog number: 25544 Epoch time: 08025.05477624 Element set: 780 Inclination: 051.6407 deg RA of node: 039.6016 deg Eccentricity: 0.0005471 Arg of perigee: 327.5854 deg Mean anomaly: 129.2027 deg Mean motion: 15.77436134 rev/day Decay rate: 1.8228e-04 rev/day^2 Epoch rev: 52578 Checksum: 303
Satellite: OO-38 Catalog number: 26063 Epoch time: 08024.00025666 Element set: 119 Inclination: 100.2122 deg RA of node: 072.2791 deg Eccentricity: 0.0036572 Arg of perigee: 258.4379 deg Mean anomaly: 101.2685 deg Mean motion: 14.35825738 rev/day Decay rate: -2.5e-07 rev/day^2 Epoch rev: 41873 Checksum: 286
Satellite: UWE-1 Catalog number: 28892 Epoch time: 08024.37041592 Element set: 957 Inclination: 098.1132 deg RA of node: 281.3405 deg Eccentricity: 0.0018152 Arg of perigee: 139.4302 deg Mean anomaly: 220.8227 deg Mean motion: 14.59585777 rev/day Decay rate: 1.02e-06 rev/day^2 Epoch rev: 11947 Checksum: 298
Satellite: CO-58 Catalog number: 28895 Epoch time: 08024.27388202 Element set: 931 Inclination: 098.1169 deg RA of node: 281.5451 deg Eccentricity: 0.0018606 Arg of perigee: 139.6755 deg Mean anomaly: 220.5815 deg Mean motion: 14.59626345 rev/day Decay rate: -2.12e-06 rev/day^2 Epoch rev: 11934 Checksum: 323
Satellite: NCUBE2 Catalog number: 28897 Epoch time: 08023.70683376 Element set: 460 Inclination: 098.1119 deg RA of node: 280.9290 deg Eccentricity: 0.0017800 Arg of perigee: 143.1367 deg Mean anomaly: 217.1064 deg Mean motion: 14.59795888 rev/day Decay rate: 1.27e-06 rev/day^2 Epoch rev: 11154 Checksum: 315
Satellite: FCAL Catalog number: 29667 Epoch time: 08024.90397894 Element set: 696 Inclination: 051.6333 deg RA of node: 003.3456 deg Eccentricity: 0.0010129 Arg of perigee: 128.4981 deg Mean anomaly: 231.6944 deg Mean motion: 15.99757259 rev/day Decay rate: 2.9696e-04 rev/day^2 Epoch rev: 6334 Checksum: 345
Satellite: FALCON Catalog number: 30776 Epoch time: 08024.22452531 Element set: 233 Inclination: 035.4350 deg RA of node: 312.5769 deg Eccentricity: 0.0001273 Arg of perigee: 246.4307 deg Mean anomaly: 113.6276 deg Mean motion: 15.02861616 rev/day Decay rate: 4.05e-06 rev/day^2 Epoch rev: 4832 Checksum: 258
Satellite: MAST Catalog number: 31126 Epoch time: 08023.22253305 Element set: 238 Inclination: 098.0592 deg RA of node: 093.3698 deg Eccentricity: 0.0095812 Arg of perigee: 064.5337 deg Mean anomaly: 296.5776 deg Mean motion: 14.53394447 rev/day Decay rate: 5.8e-07 rev/day^2 Epoch rev: 4081 Checksum: 307
Satellite: CAPE1 Catalog number: 31130 Epoch time: 08024.68018317 Element set: 219 Inclination: 098.0609 deg RA of node: 094.1150 deg Eccentricity: 0.0103755 Arg of perigee: 062.0165 deg Mean anomaly: 299.1494 deg Mean motion: 14.51924186 rev/day Decay rate: 1.1e-07 rev/day^2 Epoch rev: 4075 Checksum: 269
/EX
participants (1)
-
Ray Hoad